Location: Monroe
(41.9160°N, 83.3980°W)
Time: 16:38:01
(UTC-04:00)

Amateur Radio Satellites - All Passes

Search period start: 30 March 2017 16:08
Search period end: 31 March 2017 16:08
Location: Monroe, 41.9160°N, 83.3980°W

Satellite Date Start Highest point End Downlink Frequencies (MHz)
Time Altitude Azimuth
SO-50 30 Mar 16:31:47 16:34:49 17° 320° (NW) 16:37:49 436.795
AO-7 30 Mar 16:39:12 16:47:25 63° 256° (WSW) 16:55:40 .
MOZHAYETS 4 30 Mar 16:41:06 16:45:25 41° 98° (E) 16:49:44
RS-15 30 Mar 16:56:41 17:06:31 26° 345° (NNW) 17:16:24 29.354- 29.394
BEESAT 30 Mar 17:03:50 17:08:27 51° 288° (WNW) 17:13:02 436.000
ITAMSAT 1 30 Mar 17:07:36 17:11:42 23° 266° (W) 17:15:50 435.822/435.867
O/OREOS (USA 219) 30 Mar 17:16:55 17:21:27 82° 295° (WNW) 17:26:03 437.305
PCSat 30 Mar 17:21:34 17:25:23 19° 42° (NE) 17:29:11 145.827
ITUPSAT 1 30 Mar 17:23:24 17:27:41 34° 292° (WNW) 17:31:57 437.325
KKS-1 30 Mar 17:26:45 17:30:30 26° 95° (E) 17:34:13 437.445
CUBESAT XI-V 30 Mar 17:45:25 17:49:39 33° 97° (E) 17:53:52 437.345
CUTE-I 30 Mar 17:50:23 17:54:21 21° 63° (ENE) 17:58:20 437.470
STARS 30 Mar 17:50:30 17:53:47 20° 94° (E) 17:57:02 437.465
HO-68 30 Mar 17:56:12 17:56:52 10° 46° (NE) 17:57:31 435.675
YUBILEINY 30 Mar 17:58:54 18:05:48 25° 65° (ENE) 18:12:39 435.215
DOVE 4 30 Mar 18:01:26 18:05:44 33° 68° (ENE) 18:10:16 437.250
XW-2F 30 Mar 18:04:17 18:07:01 19° 68° (ENE) 18:09:46 145.980 - 146.000
LilacSat-2 30 Mar 18:13:26 18:16:41 27° 70° (ENE) 18:19:54 437.200
NUDT-PHONESAT 30 Mar 18:15:54 18:18:48 22° 69° (ENE) 18:21:42 437.300
MOZHAYETS 4 30 Mar 18:18:58 18:22:18 20° 295° (WNW) 18:25:36
KAITUO 1B 30 Mar 18:28:38 18:31:56 30° 71° (ENE) 18:35:14 145.475/437.950
XW-2D 30 Mar 18:32:11 18:35:48 44° 73° (ENE) 18:39:25 145.860 - 145.880
XW-2B 30 Mar 18:38:10 18:41:51 50° 74° (ENE) 18:45:32 145.730 - 145.750
AO-7 30 Mar 18:41:00 18:41:45 10° 275° (W) 18:42:30 .
XW-2C 30 Mar 18:48:28 18:52:14 70° 76° (ENE) 18:56:01 145.795 - 145.815
O/OREOS (USA 219) 30 Mar 19:00:41 19:01:39 11° 312° (NW) 19:02:37 437.305
Tancredo 1 30 Mar 19:03:03 19:04:51 14° 131° (SE) 19:06:38 437.200
KKS-1 30 Mar 19:03:07 19:07:01 30° 292° (WNW) 19:10:55 437.445
PCSat 30 Mar 19:03:59 19:09:27 80° 242° (WSW) 19:14:51 145.827
CUTE 1.7 + AOD 2 30 Mar 19:13:54 19:16:40 17° 65° (ENE) 19:19:26 437.475
RS-15 30 Mar 19:14:19 19:24:36 29° 21° (NNE) 19:34:38 29.354- 29.394
CUBESAT XI-V 30 Mar 19:23:03 19:26:52 26° 293° (WNW) 19:30:41 437.345
ISS 30 Mar 19:23:45 19:26:15 21° 134° (SE) 19:28:46 437.550
STARS 30 Mar 19:26:09 19:30:15 37° 290° (WNW) 19:34:17 437.465
CUTE-I 30 Mar 19:28:45 19:33:59 54° 260° (W) 19:39:16 437.470
HO-68 30 Mar 19:36:07 19:42:57 51° 67° (ENE) 19:49:49 435.675
XW-2F 30 Mar 19:37:41 19:40:59 28° 263° (W) 19:44:19 145.980 - 146.000
DOVE 4 30 Mar 19:39:16 19:43:24 28° 266° (W) 19:47:46 437.250
CUBEBUG 2 30 Mar 19:43:47 19:47:11 20° 65° (ENE) 19:50:33 437.445
LilacSat-2 30 Mar 19:48:01 19:50:56 21° 266° (W) 19:53:51 437.200
M-CUBED/EXP-1 PRIME 30 Mar 19:48:48 19:53:11 39° 102° (ESE) 19:57:31 437.505
NUDT-PHONESAT 30 Mar 19:49:31 19:52:37 25° 264° (W) 19:55:43 437.300
YUBILEINY 30 Mar 19:54:46 20:03:25 73° 267° (W) 20:12:05 435.215
KAITUO 1B 30 Mar 20:03:28 20:06:01 17° 267° (W) 20:08:34 145.475/437.950
AAUSAT CUBESAT 2 30 Mar 20:03:55 20:06:50 19° 67° (ENE) 20:09:45 437.432
XW-2D 30 Mar 20:08:31 20:10:13 13° 269° (W) 20:11:55 145.860 - 145.880
XW-2B 30 Mar 20:15:14 20:16:20 11° 270° (W) 20:17:25 145.730 - 145.750
XW-2A 30 Mar 20:20:43 20:24:07 59° 259° (W) 20:27:32 145.665 - 145.685
STRAND 1 30 Mar 20:28:36 20:33:19 37° 97° (E) 20:38:00 437.568
AO-85 30 Mar 20:30:51 20:35:06 47° 118° (ESE) 20:39:07 145.980
SEEDS 30 Mar 20:32:04 20:36:13 82° 76° (ENE) 20:40:23 437.485
UWE-3 30 Mar 20:35:28 20:39:47 39° 71° (ENE) 20:44:03 435.000/436.395/437.385
Tancredo 1 30 Mar 20:37:29 20:40:35 63° 327° (NNW) 20:43:44 437.200
CUTE 1.7 + AOD 2 30 Mar 20:48:12 20:52:11 41° 262° (W) 20:56:11 437.475
Oscar 11 30 Mar 20:50:15 20:53:46 25° 68° (ENE) 20:57:17 .
PCSat 30 Mar 20:51:35 20:51:54 10° 259° (W) 20:52:13 145.827
ISS 30 Mar 20:59:22 21:02:30 47° 330° (NNW) 21:05:42 437.550
ZACube-1 30 Mar 21:05:31 21:09:51 47° 73° (ENE) 21:14:07 437.345
CUBEBUG 2 30 Mar 21:18:54 21:23:27 46° 261° (W) 21:27:59 437.445
M-CUBED/EXP-1 PRIME 30 Mar 21:23:36 21:27:23 25° 299° (WNW) 21:31:09 437.505
HO-68 30 Mar 21:24:43 21:30:53 31° 265° (W) 21:37:07 435.675
RS-15 30 Mar 21:27:48 21:40:07 66° 51° (NE) 21:51:50 29.354- 29.394
AO-73 30 Mar 21:30:54 21:35:24 82° 78° (ENE) 21:39:51 145.935
AAUSAT CUBESAT 2 30 Mar 21:38:17 21:42:02 35° 263° (W) 21:45:50 437.432
SO-50 30 Mar 21:41:24 21:43:27 13° 36° (NE) 21:45:30 436.795
BEESAT 3 30 Mar 21:41:33 21:44:53 27° 114° (ESE) 21:48:16 437.485
YUBILEINY 30 Mar 21:55:02 21:58:33 13° 286° (WNW) 22:02:05 435.215
STRAND 1 30 Mar 22:08:04 22:12:20 27° 294° (WNW) 22:16:35 437.568
BEESAT 2 30 Mar 22:08:14 22:11:13 21° 112° (ESE) 22:14:15 435.950
AO-85 30 Mar 22:12:29 22:15:42 20° 315° (NW) 22:18:47 145.980
UWE-3 30 Mar 22:12:51 22:16:20 21° 267° (W) 22:19:48 435.000/436.395/437.385
DELFI C3 30 Mar 22:14:51 22:18:42 63° 75° (ENE) 22:22:36 145.870
Tancredo 1 30 Mar 22:14:56 22:17:11 18° 347° (NNW) 22:19:25 437.200
Oscar 11 30 Mar 22:26:01 22:29:46 29° 264° (W) 22:33:33 .
ISS 30 Mar 22:37:21 22:39:35 17° 350° (N) 22:41:49 437.550
PRISM 30 Mar 22:39:20 22:43:01 29° 97° (E) 22:46:40 437.425
ZACube-1 30 Mar 22:43:28 22:46:20 17° 268° (W) 22:49:12 437.345
TIGRISAT 30 Mar 23:08:14 23:12:04 30° 96° (E) 23:15:50 435.000
BEESAT 3 30 Mar 23:18:59 23:22:25 28° 312° (NW) 23:25:55 437.485
UNISAT 6 30 Mar 23:19:40 23:23:51 43° 98° (E) 23:27:56 437.425
SO-50 30 Mar 23:20:13 23:24:43 74° 57° (ENE) 23:29:12 436.795
RS-15 30 Mar 23:41:07 23:51:53 39° 254° (WSW) 00:02:15 29.354- 29.394
BEESAT 2 30 Mar 23:45:05 23:48:46 36° 310° (NW) 23:52:30 435.950
Tancredo 1 30 Mar 23:52:14 23:54:11 15° 7° (N) 23:56:08 437.200
ESTCUBE 1 30 Mar 23:52:20 23:56:40 53° 73° (ENE) 00:01:02 437.505/2401.250
LO-87 30 Mar 23:56:14 23:59:49 67° 258° (WSW) 00:03:27 145.935 - 145.965
DX 1 31 Mar 00:08:39 00:09:27 10° 60° (ENE) 00:10:14 434.975-435.025
FO-29 31 Mar 00:14:42 00:20:33 84° 103° (ESE) 00:25:51 435.910
ISS 31 Mar 00:14:44 00:17:00 17° 11° (N) 00:19:15 437.550
PRISM 31 Mar 00:14:49 00:18:09 24° 293° (WNW) 00:21:29 437.425
NANOSAT C BR1 31 Mar 00:19:29 00:21:36 13° 91° (E) 00:23:42 145.865
AIST 2D 31 Mar 00:20:47 00:23:43 25° 96° (E) 00:26:37 435.315
EO-79 31 Mar 00:26:32 00:29:27 18° 93° (E) 00:32:20 145.935-145.965
50 SAT 31 Mar 00:27:47 00:30:17 19° 68° (ENE) 00:32:49 437.505
UKube-1 31 Mar 00:37:00 00:39:27 15° 63° (ENE) 00:41:53 .
VELOX 1 31 Mar 00:43:36 00:47:55 57° 73° (ENE) 00:52:18 145.980
TIGRISAT 31 Mar 00:45:05 00:48:38 24° 293° (WNW) 00:52:06 435.000
SPROUT 31 Mar 00:51:06 00:55:20 59° 74° (ENE) 00:59:35 437.525
POLYITAN 1 31 Mar 00:55:25 00:59:21 37° 98° (E) 01:03:15 437.675
UNISAT 6 31 Mar 00:57:17 01:00:13 18° 296° (WNW) 01:03:06 437.425
QB50P2 31 Mar 01:00:12 01:04:17 46° 99° (E) 01:08:20 145.880/145.840
SO-50 31 Mar 01:02:49 01:04:33 12° 252° (WSW) 01:06:16 436.795
BUGSAT 1 31 Mar 01:03:01 01:04:33 12° 90° (E) 01:06:04 437.445
DUCHIFAT 1 31 Mar 01:04:49 01:08:46 39° 98° (E) 01:12:41 145.980
Tancredo 1 31 Mar 01:27:59 01:30:58 35° 27° (NNE) 01:33:56 437.200
ESTCUBE 1 31 Mar 01:31:16 01:33:47 15° 269° (W) 01:36:18 437.505/2401.250
DX 1 31 Mar 01:40:36 01:44:57 83° 258° (WSW) 01:49:21 434.975-435.025
Oscar 19 31 Mar 01:43:51 01:45:55 12° 89° (E) 01:47:58 437.125/150
O/OREOS (USA 219) 31 Mar 01:47:57 01:51:37 22° 56° (NE) 01:55:14 437.305
ISS 31 Mar 01:50:51 01:54:03 48° 30° (NNE) 01:57:15 437.550
NANOSAT C BR1 31 Mar 01:53:31 01:57:37 51° 287° (WNW) 02:01:40 145.865
AIST 2D 31 Mar 01:54:18 01:56:46 18° 292° (WNW) 01:59:15 435.315
50 SAT 31 Mar 02:00:21 02:03:11 24° 264° (W) 02:06:02 437.505
EO-79 31 Mar 02:01:25 02:05:22 38° 289° (WNW) 02:09:15 145.935-145.965
FO-29 31 Mar 02:01:45 02:04:42 14° 305° (NW) 02:07:31 435.910
UKube-1 31 Mar 02:10:48 02:15:01 54° 259° (W) 02:19:16 .
VELOX 1 31 Mar 02:22:36 02:24:45 13° 269° (W) 02:26:54 145.980
SPROUT 31 Mar 02:29:50 02:31:36 12° 270° (W) 02:33:23 437.525
POLYITAN 1 31 Mar 02:31:51 02:34:52 19° 294° (WNW) 02:37:52 437.675
BEESAT 31 Mar 02:33:53 02:37:30 22° 65° (ENE) 02:41:07 436.000
Gurwin Techsat 1B 31 Mar 02:36:03 02:40:14 23° 93° (E) 02:44:25 435.225
BUGSAT 1 31 Mar 02:36:12 02:40:17 56° 287° (WNW) 02:44:17 437.445
QB50P2 31 Mar 02:37:04 02:39:41 16° 296° (WNW) 02:42:19 145.880/145.840
DUCHIFAT 1 31 Mar 02:41:14 02:44:09 18° 295° (WNW) 02:47:02 145.980
ITUPSAT 1 31 Mar 02:52:47 02:57:00 32° 68° (ENE) 03:01:13 437.325
Tancredo 1 31 Mar 03:04:12 03:07:00 29° 224° (SW) 03:09:48 437.200
Oscar 19 31 Mar 03:20:37 03:25:49 80° 285° (WNW) 03:31:00 437.125/150
O/OREOS (USA 219) 31 Mar 03:26:51 03:31:10 40° 254° (WSW) 03:35:26 437.305
ISS 31 Mar 03:27:45 03:30:18 21° 226° (SW) 03:32:52 437.550
ITAMSAT 1 31 Mar 03:41:03 03:43:52 15° 90° (E) 03:46:41 435.822/435.867
MOZHAYETS 4 31 Mar 03:43:05 03:47:22 41° 71° (ENE) 03:51:40
BEESAT 31 Mar 04:10:28 04:14:59 42° 261° (W) 04:19:32 436.000
Gurwin Techsat 1B 31 Mar 04:15:19 04:20:23 45° 290° (WNW) 04:25:25 435.225
KKS-1 31 Mar 04:25:05 04:28:46 26° 67° (ENE) 04:32:28 437.445
ITUPSAT 1 31 Mar 04:30:42 04:34:48 28° 264° (W) 04:38:54 437.325
AO-7 31 Mar 04:40:22 04:48:13 44° 100° (E) 04:56:01 .
STARS 31 Mar 04:47:32 04:50:45 20° 65° (ENE) 04:53:59 437.465
CUBESAT XI-V 31 Mar 04:48:59 04:53:05 34° 70° (ENE) 04:57:14 437.345
AO-85 31 Mar 05:01:34 05:05:18 41° 52° (NE) 05:09:08 145.980
Oscar 19 31 Mar 05:02:54 05:04:16 11° 303° (WNW) 05:05:38 437.125/150
ITAMSAT 1 31 Mar 05:18:39 05:23:49 68° 287° (WNW) 05:28:57 435.822/435.867
MOZHAYETS 4 31 Mar 05:21:22 05:24:41 20° 267° (W) 05:28:01
NO-84 31 Mar 05:22:12 05:24:07 16° 129° (SE) 05:25:59 435.350 FM
BEESAT 3 31 Mar 05:57:50 06:00:58 21° 45° (NE) 06:04:05 437.485
KKS-1 31 Mar 06:01:13 06:05:11 31° 263° (W) 06:09:11 437.445
STARS 31 Mar 06:22:38 06:26:48 40° 261° (W) 06:31:01 437.465
BEESAT 2 31 Mar 06:25:09 06:27:59 18° 43° (NE) 06:30:47 435.950
CUBESAT XI-V 31 Mar 06:26:48 06:30:30 24° 266° (W) 06:34:14 437.345
AO-7 31 Mar 06:33:15 06:40:56 44° 299° (WNW) 06:48:36 .
M-CUBED/EXP-1 PRIME 31 Mar 06:34:58 06:38:39 45° 66° (ENE) 06:42:39 437.505
AO-85 31 Mar 06:42:46 06:45:23 17° 248° (WSW) 06:48:05 145.980
NO-84 31 Mar 06:58:42 07:01:25 36° 325° (NW) 07:04:06 435.350 FM
YUBILEINY 31 Mar 07:01:13 07:08:10 28° 82° (E) 07:15:06 435.215
XW-2F 31 Mar 07:09:20 07:12:28 25° 96° (E) 07:15:34 145.980 - 146.000
NUDT-PHONESAT 31 Mar 07:19:16 07:22:26 27° 96° (E) 07:25:35 437.300
LilacSat-2 31 Mar 07:19:53 07:23:25 37° 98° (E) 07:26:55 437.200
KAITUO 1B 31 Mar 07:33:00 07:36:30 40° 98° (E) 07:40:00 145.475/437.950
BEESAT 3 31 Mar 07:34:56 07:38:44 40° 243° (WSW) 07:42:29 437.485
DOVE 4 31 Mar 07:36:43 07:42:04 82° 104° (ESE) 07:47:11 437.250
XW-2D 31 Mar 07:38:12 07:41:57 63° 101° (ESE) 07:45:39 145.860 - 145.880
XW-2B 31 Mar 07:44:16 07:48:01 74° 100° (E) 07:51:46 145.730 - 145.750
STRAND 1 31 Mar 07:44:34 07:49:35 55° 72° (ENE) 07:54:37 437.568
CUTE-I 31 Mar 07:45:16 07:50:34 59° 101° (E) 07:55:48 437.470
XW-2C 31 Mar 07:54:43 07:58:28 80° 284° (WNW) 08:02:12 145.795 - 145.815
BEESAT 2 31 Mar 08:02:05 08:06:04 54° 241° (WSW) 08:09:59 435.950
PCSat 31 Mar 08:06:37 08:08:26 12° 102° (ESE) 08:10:16 145.827
M-CUBED/EXP-1 PRIME 31 Mar 08:11:14 08:13:25 15° 265° (W) 08:15:42 437.505
SEEDS 31 Mar 08:17:01 08:19:04 13° 91° (E) 08:21:06 437.485
AO-7 31 Mar 08:30:57 08:31:31 10° 321° (NW) 08:32:06 .
CUTE 1.7 + AOD 2 31 Mar 08:32:33 08:36:19 30° 96° (E) 08:40:04 437.475
XW-2F 31 Mar 08:43:36 08:46:29 21° 291° (WNW) 08:49:21 145.980 - 146.000
HO-68 31 Mar 08:50:37 08:57:36 52° 101° (E) 09:04:32 435.675
NUDT-PHONESAT 31 Mar 08:53:31 08:56:12 19° 292° (WNW) 08:58:52 437.300
LilacSat-2 31 Mar 08:55:07 08:57:23 15° 294° (WNW) 08:59:39 437.200
YUBILEINY 31 Mar 08:55:37 09:04:16 64° 281° (WNW) 09:12:56 435.215
KAITUO 1B 31 Mar 09:08:15 09:10:10 14° 295° (WNW) 09:12:05 145.475/437.950
CUBEBUG 2 31 Mar 09:09:39 09:13:38 35° 97° (E) 09:17:29 437.445
XW-2A 31 Mar 09:14:59 09:18:18 57° 286° (WNW) 09:21:35 145.665 - 145.685
DOVE 4 31 Mar 09:16:14 09:18:58 14° 300° (WNW) 09:21:40 437.250
AAUSAT CUBESAT 2 31 Mar 09:19:41 09:23:26 32° 97° (E) 09:27:10 437.432
AO-73 31 Mar 09:20:08 09:22:21 14° 91° (E) 09:24:32 145.935
STRAND 1 31 Mar 09:25:38 09:29:05 18° 268° (W) 09:32:34 437.568
CUTE-I 31 Mar 09:26:25 09:30:08 19° 298° (WNW) 09:33:50 437.470
PRISM 31 Mar 09:29:12 09:32:23 22° 67° (ENE) 09:35:36 437.425
PCSat 31 Mar 09:45:34 09:50:59 89° 121° (ESE) 09:56:27 145.827
SEEDS 31 Mar 09:50:58 09:55:03 52° 287° (WNW) 09:59:08 437.485
UWE-3 31 Mar 10:00:51 10:05:08 81° 101° (E) 10:09:17 435.000/436.395/437.385
TIGRISAT 31 Mar 10:06:47 10:10:50 30° 68° (ENE) 10:14:50 435.000
CUTE 1.7 + AOD 2 31 Mar 10:08:39 10:12:00 23° 292° (WNW) 10:15:21 437.475
Oscar 11 31 Mar 10:12:06 10:16:16 47° 99° (E) 10:20:25 .
UNISAT 6 31 Mar 10:18:13 10:22:36 41° 71° (ENE) 10:26:57 437.425
FO-29 31 Mar 10:25:03 10:32:11 44° 68° (ENE) 10:38:48 435.910
ZACube-1 31 Mar 10:29:30 10:33:42 84° 281° (W) 10:37:49 437.345
HO-68 31 Mar 10:38:50 10:45:00 33° 299° (WNW) 10:51:11 435.675
CUBEBUG 2 31 Mar 10:46:46 10:50:00 21° 294° (WNW) 10:53:10 437.445
AO-73 31 Mar 10:54:51 10:58:52 47° 287° (WNW) 11:02:49 145.935
AAUSAT CUBESAT 2 31 Mar 10:55:32 10:58:42 21° 292° (WNW) 11:01:52 437.432
AIST 2D 31 Mar 10:57:32 10:58:29 11° 65° (ENE) 10:59:26 435.315
YUBILEINY 31 Mar 10:59:34 11:03:04 13° 305° (NW) 11:06:36 435.215
PRISM 31 Mar 11:03:56 11:07:31 29° 263° (W) 11:11:08 437.425
NANOSAT C BR1 31 Mar 11:12:47 11:14:20 12° 62° (ENE) 11:15:53 145.865
EO-79 31 Mar 11:19:46 11:22:17 15° 64° (ENE) 11:24:48 145.935-145.965
DELFI C3 31 Mar 11:26:00 11:30:01 81° 283° (WNW) 11:34:01 145.870
PCSat 31 Mar 11:31:35 11:35:08 17° 319° (NW) 11:38:42 145.827
TIGRISAT 31 Mar 11:43:25 11:47:27 28° 264° (W) 11:51:28 435.000
ESTCUBE 1 31 Mar 11:46:57 11:48:01 11° 89° (E) 11:49:05 437.505/2401.250
POLYITAN 1 31 Mar 11:48:09 11:51:53 30° 69° (ENE) 11:55:38 437.675
Oscar 11 31 Mar 11:49:19 11:52:02 16° 295° (WNW) 11:54:43 .
RS-15 31 Mar 11:51:35 12:02:11 39° 106° (ESE) 12:13:04 29.354- 29.394
QB50P2 31 Mar 11:52:51 11:56:46 36° 70° (ENE) 12:00:42 145.880/145.840
BUGSAT 1 31 Mar 11:54:39 11:54:57 10° 61° (ENE) 11:55:15 437.445
NO-84 31 Mar 11:54:45 11:57:01 19° 29° (NNE) 11:59:23 435.350 FM
UNISAT 6 31 Mar 11:55:59 11:59:26 20° 267° (W) 12:02:53 437.425
DUCHIFAT 1 31 Mar 11:56:46 12:00:29 30° 70° (ENE) 12:04:14 145.980
FO-29 31 Mar 12:10:00 12:17:09 40° 263° (W) 12:23:51 435.910
AIST 2D 31 Mar 12:27:51 12:31:17 48° 261° (W) 12:34:42 435.315
VELOX 1 31 Mar 12:36:03 12:36:53 10° 89° (E) 12:37:44 145.980
NANOSAT C BR1 31 Mar 12:45:13 12:49:28 69° 258° (WSW) 12:53:44 145.865
EO-79 31 Mar 12:53:28 12:57:37 51° 260° (W) 13:01:48 145.935-145.965
LO-87 31 Mar 12:56:16 12:59:52 55° 285° (WNW) 13:03:24 145.935 - 145.965
Oscar 19 31 Mar 13:00:22 13:04:02 20° 63° (ENE) 13:07:43 437.125/150
ESTCUBE 1 31 Mar 13:20:48 13:25:19 73° 285° (WNW) 13:29:49 437.505/2401.250
50 SAT 31 Mar 13:23:58 13:26:35 19° 95° (E) 13:29:10 437.505
POLYITAN 1 31 Mar 13:24:11 13:27:40 24° 265° (W) 13:31:09 437.675
BUGSAT 1 31 Mar 13:25:24 13:29:38 82° 256° (WSW) 13:33:56 437.445
DX 1 31 Mar 13:29:30 13:32:18 16° 93° (E) 13:35:05 434.975-435.025
QB50P2 31 Mar 13:29:31 13:32:39 20° 267° (W) 13:35:48 145.880/145.840
NO-84 31 Mar 13:31:42 13:34:43 49° 224° (SW) 13:37:57 435.350 FM
DUCHIFAT 1 31 Mar 13:32:46 13:36:10 23° 265° (W) 13:39:35 145.980
SO-50 31 Mar 13:35:30 13:39:02 22° 112° (ESE) 13:42:33 436.795
AO-7 31 Mar 13:52:11 13:56:25 15° 45° (NE) 14:00:39 .
Gurwin Techsat 1B 31 Mar 13:57:13 14:02:05 38° 68° (ENE) 14:07:00 435.225
UKube-1 31 Mar 13:57:50 14:01:18 23° 95° (E) 14:04:46 .
RS-15 31 Mar 14:01:59 14:13:59 67° 309° (NW) 14:26:22 29.354- 29.394
VELOX 1 31 Mar 14:09:22 14:13:50 73° 285° (WNW) 14:18:16 145.980
SPROUT 31 Mar 14:12:07 14:16:24 74° 284° (WNW) 14:20:38 437.525
Oscar 19 31 Mar 14:37:59 14:42:57 53° 260° (W) 14:47:58 437.125/150
50 SAT 31 Mar 14:56:40 14:59:35 24° 290° (WNW) 15:02:28 437.505
ITAMSAT 1 31 Mar 14:58:45 15:02:57 25° 64° (ENE) 15:07:10 435.822/435.867
DX 1 31 Mar 15:04:30 15:08:42 45° 289° (WNW) 15:12:53 434.975-435.025
SO-50 31 Mar 15:14:46 15:19:14 45° 309° (NW) 15:23:39 436.795
UKube-1 31 Mar 15:33:30 15:37:21 32° 291° (WNW) 15:41:11 .
Gurwin Techsat 1B 31 Mar 15:37:37 15:42:06 27° 265° (W) 15:46:37 435.225
AO-7 31 Mar 15:39:25 15:47:34 63° 66° (ENE) 15:55:43 .
O/OREOS (USA 219) 31 Mar 16:00:59 16:04:28 22° 101° (ESE) 16:07:57 437.305
